TimeMST,TemperatureF,Dew PointF,Humidity,Sea Level PressureIn,VisibilityMPH,Wind Direction,Wind SpeedMPH,Gust SpeedMPH,PrecipitationIn,Events,Conditions,WindDirDegrees,DateUTC
12:29 AM,17.1,12.9,84,30.05,0.8,NE,9.2,18.4,0.02,Snow,Light Snow,40,2014-01-11 07:29:00
12:53 AM,17.1,12.9,84,30.09,0.8,North,13.8,20.7,0.02,Snow,Light Snow,10,2014-01-11 07:53:00
1:02 AM,17.1,12.9,84,30.05,1.0,NNE,10.4,18.4,0.01,Snow,Light Snow,20,2014-01-11 08:02:00
1:30 AM,18.0,12.9,81,30.06,1.2,NNE,10.4,23.0,0.01,Snow,Light Snow,20,2014-01-11 08:30:00
1:53 AM,19.0,12.9,77,30.09,1.5,NNE,12.7,20.7,0.02,Snow,Light Snow,20,2014-01-11 08:53:00
2:11 AM,19.0,12.9,77,30.09,2.0,NNE,16.1,26.5,0.01,Snow,Light Snow,20,2014-01-11 09:11:00
2:42 AM,19.9,12.9,74,30.09,4.0,NNE,8.1,18.4,0.01,Snow,Light Snow,20,2014-01-11 09:42:00
2:53 AM,19.0,12.9,77,30.10,8.0,Variable,4.6,17.3,0.01,Snow,Light Snow,0,2014-01-11 09:53:00
3:53 AM,19.9,14.0,78,30.12,3.0,Variable,4.6,19.6,0.00,Snow,Light Snow,0,2014-01-11 10:53:00
4:12 AM,19.9,14.0,78,30.13,2.5,ENE,8.1,19.6,0.00,Snow,Light Snow,70,2014-01-11 11:12:00
4:53 AM,19.0,15.1,85,30.16,2.0,NNE,11.5,-,0.00,Snow,Light Snow,20,2014-01-11 11:53:00
5:17 AM,19.9,15.1,81,30.16,3.0,NNW,12.7,-,0.00,Snow,Light Snow,340,2014-01-11 12:17:00
5:27 AM,19.9,15.1,81,30.16,2.5,NNW,11.5,-,0.00,Snow,Light Snow,330,2014-01-11 12:27:00
5:53 AM,19.9,15.1,81,30.16,4.0,NW,12.7,23.0,0.00,Snow,Light Snow,320,2014-01-11 12:53:00
6:09 AM,19.9,15.1,81,30.16,2.5,NW,16.1,25.3,0.00,Snow,Light Snow,310,2014-01-11 13:09:00
6:43 AM,19.9,14.0,78,30.15,4.0,NW,21.9,31.1,0.00,Snow,Light Snow,310,2014-01-11 13:43:00
6:53 AM,19.9,14.0,78,30.14,3.0,NW,20.7,29.9,0.00,Snow,Light Snow,320,2014-01-11 13:53:00
7:00 AM,19.9,14.0,78,30.15,3.0,NW,25.3,35.7,0.00,Snow,Light Snow,320,2014-01-11 14:00:00
7:05 AM,19.9,14.0,78,30.14,2.0,NW,26.5,35.7,0.00,,Overcast,310,2014-01-11 14:05:00
7:18 AM,19.9,14.0,78,30.13,7.0,NW,20.7,38.0,0.00,,Scattered Clouds,310,2014-01-11 14:18:00
7:53 AM,19.9,14.0,78,30.11,10.0,NW,16.1,-,0.00,,Clear,320,2014-01-11 14:53:00
8:53 AM,26.1,15.1,63,30.09,4.0,NW,19.6,29.9,0.00,,Partly Cloudy,310,2014-01-11 15:53:00
9:53 AM,26.1,16.0,66,30.12,10.0,NW,11.5,19.6,0.00,,Clear,320,2014-01-11 16:53:00
10:53 AM,28.9,17.1,61,30.09,10.0,NNW,10.4,19.6,N/A,,Clear,330,2014-01-11 17:53:00
11:53 AM,30.0,18.0,61,30.03,10.0,North,19.6,-,N/A,,Clear,350,2014-01-11 18:53:00
12:53 PM,33.1,19.0,56,29.99,10.0,NNW,15.0,27.6,N/A,,Clear,340,2014-01-11 19:53:00
1:53 PM,34.0,19.0,54,29.93,10.0,North,11.5,-,N/A,,Clear,350,2014-01-11 20:53:00
2:53 PM,35.1,19.0,52,29.90,10.0,North,12.7,-,N/A,,Clear,360,2014-01-11 21:53:00
3:53 PM,34.0,18.0,52,29.89,10.0,North,15.0,21.9,N/A,,Clear,350,2014-01-11 22:53:00
4:53 PM,30.9,17.1,57,29.91,10.0,North,12.7,-,N/A,,Clear,10,2014-01-11 23:53:00
5:53 PM,28.9,16.0,58,29.88,10.0,NNE,11.5,-,N/A,,Clear,30,2014-01-12 00:53:00
6:53 PM,30.0,15.1,54,29.87,10.0,NNE,10.4,25.3,N/A,,Clear,20,2014-01-12 01:53:00
7:53 PM,28.9,15.1,56,29.87,10.0,NNE,8.1,-,N/A,,Clear,30,2014-01-12 02:53:00
8:53 PM,27.0,15.1,61,29.82,10.0,NNE,11.5,-,N/A,,Clear,30,2014-01-12 03:53:00
9:53 PM,27.0,14.0,58,29.78,10.0,NNE,10.4,-,N/A,,Clear,20,2014-01-12 04:53:00
10:53 PM,24.1,12.9,62,29.75,10.0,ENE,9.2,-,N/A,,Clear,60,2014-01-12 05:53:00
11:53 PM,26.1,12.0,55,29.71,10.0,Variable,3.5,-,N/A,,Clear,0,2014-01-12 06:53:00